REMOVEDEBRIS (43510 NORAD) Tracking and Keplerian Element Data

This shows tracking and keplerian element data for the satellite.

Feedback or suggestion? Click here.




ElementValue
Catalog43510
NameREMOVEDEBRIS
Epoch Orbit376
Epoch Day195.71649952
Epoch Year2018
RAAN241.4276
Inclination51.639
Eccentricity0.0003379
Argument of Perigee317.5249
Mean Anonmoly42.548
Mean Motion15.5449702
Decay Rate2.249E-05
L11 43510U 98067NT 18195.71649952 .00002249 00000-0 40695-4 0 9995
L22 43510 51.6390 241.4276 0003379 317.5249 42.5480 15.54497020 3764

Live tracking and technical data element details for REMOVEDEBRIS (NORAD 43510). REMOVEDEBRIS can be tracked NOW for your location showing map with azimuth and elevation plus other details from your city location.

Track the satellite on the map from your city or location and see movement details for azimuth, elevation, latitude, longitude, range, height, and movement on the map or in text.







IsCatalogInMostPopularTable: catalog: 43510, numindb: 65
Update: records affected: 1



GetName: 43510 REMOVEDEBRIS

Hit Count: updated at: Fri, 16 Nov 2018 05:28:31 GMT